User: anonymous   Login
Location: Beang
(6.6177°N, 10.9863°W)
Time: 11:19:29
(UTC+00:00)
Language:

BREEZE-M DEB (TANK) - Orbit

View from above orbital plane
View from above orbital plane
View from above satellite
View from above satellite

Ground track
Ground track

The orbit data is extracted from the following two-line orbital elements,

1 37871U 11064E   20227.12396165  .00000092  00000-0  10843-3 0  9994
2 37871  52.5430 271.8807 5761423   8.6550 358.1707  4.32944956138012
Epoch (UTC): 14 August 2020 02:58:30
Eccentricity: 0.5761423
inclination: 52.5430°
perigee height: 362 km
apogee height: 18685 km
right ascension of ascending node: 271.8807°
argument of perigee: 8.6550°
revolutions per day: 4.32944956
mean anomaly at epoch: 358.1707°
orbit number at epoch: 13801

The dashed part of the orbit path shows where the satellite is in the earth's shadow,  

DLR